Flag for Belgium Weather past 2 weeks in Bruges, Belgium

Now
59 °F

Scattered clouds.


Feels Like: 57 °F
Forecast: 53 / 65 °F
Wind: 10 mph from West

Location: Oostende Airport

Current Time: May 4, 2015 at 1:04:07 PM

Latest Report: May 4, 2015 at 12:20 PM


Visibility: N/A

Pressure: 29.74 "Hg

Humidity: 72%

Dew point: 50 °F

Location of BrugesLocation

Historic Weather in Bruges — Graph

°F

Bruges temperature yesterday

Maximum temperature yesterday: 63 °F (at 4:50 PM)
Minimum temperature yesterday: 50 °F (at 11:20 PM)
Average temperature yesterday: 55 °F

Past Weeks' High & Low Weather Summary

 TemperatureHumidityPressure
High63 °F (May 3, 4:50 PM)100% (Apr 24, 1:50 AM)30.54 "Hg (Apr 24, 1:50 AM)
Low32 °F (Apr 24, 5:50 AM)41% (Apr 29, 3:50 PM)29.50 "Hg (May 3, 11:50 AM)
Average49 °F78%29.98 "Hg
* Reported Apr 19 11:20 AM — May 4 11:50 AM, Bruges, Weather by CustomWeather, © 2015

Note: Actual official high and low records may vary slightly from our data, if they occured in-between our weather recording intervals... More about our weather records

Advertising

Bruges weather history for previous 24 hours

 ConditionsComfort  
Time TempWeatherWind HumidityBarometerVisibility
11:50 AM
Mon, May 4
59 °FScattered clouds.13 mph72%29.74 "HgN/A
11:20 AM59 °FPassing clouds.12 mph72%29.74 "HgN/A
10:50 AM57 °FScattered clouds.14 mph77%29.74 "HgN/A
10:20 AM59 °FScattered clouds.15 mph77%29.74 "HgN/A
9:50 AM57 °FScattered clouds.14 mph82%29.74 "HgN/A
9:20 AM55 °FBroken clouds.12 mph88%29.74 "HgN/A
8:50 AM55 °FLight rain. Broken clouds.16 mph82%29.74 "HgN/A
8:20 AM55 °FPartly sunny.13 mph88%29.71 "HgN/A
7:50 AM54 °FPartly sunny.13 mph94%29.71 "HgN/A
7:20 AM54 °FBroken clouds.12 mph88%29.71 "HgN/A
6:50 AM54 °FPartly cloudy.12 mph94%29.71 "HgN/A
6:20 AM54 °FPassing clouds.9 mph88%29.68 "HgN/A
5:50 AM54 °FPassing clouds.12 mph88%29.68 "HgN/A
5:20 AM54 °FPassing clouds.14 mph88%29.68 "HgN/A
4:50 AM54 °FPassing clouds.9 mph88%29.68 "HgN/A
4:20 AM54 °FPassing clouds.9 mph88%29.68 "HgN/A
3:50 AM54 °FPassing clouds.14 mph94%29.68 "HgN/A
3:20 AM54 °FPassing clouds.9 mph88%29.68 "HgN/A
2:50 AM52 °FPassing clouds.12 mph94%29.68 "HgN/A
2:20 AM52 °FPassing clouds.10 mph94%29.68 "HgN/A
1:50 AM52 °FPassing clouds.9 mph88%29.65 "HgN/A
1:20 AM52 °FPassing clouds.10 mph88%29.65 "HgN/A
12:50 AM50 °FPassing clouds.9 mph94%29.65 "HgN/A
12:20 AM50 °FPassing clouds.10 mph94%29.65 "HgN/A
11:50 PM
Sun, May 3
50 °FPassing clouds.10 mph94%29.65 "HgN/A
11:20 PM50 °FPassing clouds.9 mph94%29.65 "HgN/A
10:50 PM52 °FPassing clouds.10 mph88%29.65 "HgN/A
10:20 PM52 °FPassing clouds.12 mph88%29.62 "HgN/A
9:50 PM54 °FPassing clouds.15 mph88%29.62 "HgN/A
9:20 PM54 °FPassing clouds.14 mph88%29.62 "HgN/A
8:50 PM55 °FPassing clouds.13 mph88%29.59 "HgN/A
8:20 PM55 °FPartly sunny.15 mph88%29.59 "HgN/A
7:50 PM57 °FPartly sunny.20 mph82%29.56 "HgN/A
7:20 PM59 °FPassing clouds.17 mph77%29.56 "HgN/A
6:50 PM57 °FPassing clouds.16 mph82%29.56 "HgN/A
6:20 PM59 °FPassing clouds.22 mph82%29.53 "HgN/A
5:50 PM59 °FScattered clouds.20 mph82%29.53 "HgN/A
5:20 PM63 °FScattered clouds.22 mph73%29.50 "HgN/A
4:50 PM63 °FPartly sunny.21 mph77%29.50 "HgN/A
4:20 PM61 °FPartly sunny.22 mph88%29.50 "HgN/A
3:50 PM61 °FScattered clouds.22 mph88%29.50 "HgN/A
3:20 PM61 °FDrizzle. Partly sunny.21 mph94%29.50 "Hg4 mi
2:50 PM61 °FDrizzle. Partly sunny.16 mph94%29.50 "Hg2 mi
2:20 PM59 °FDrizzle. Partly sunny.16 mph94%29.50 "Hg2 mi
1:50 PM59 °FDrizzle. Partly sunny.15 mph94%29.50 "Hg2 mi
1:20 PM59 °FDrizzle. Partly sunny.14 mph94%29.50 "Hg2 mi
Weather by CustomWeather, © 2015

See weather overviewHow to use our weather pages